UTC,SampNum,MM/DD/YYYY,HH:MM:SS,VbatMain,VbiasPos,VbiasNeg,TC_cont,Humidity,Vrse,Vrse_std,Vk,Vk_std,Ik,Ib,Opt_PN,Opt_SN,Moxy,O2satper,TC_opt,Dphase,Bphase,Rphase,Bamp,Bpot,Ramp,Opt_rawtemp,TC_MCat,Cond,Pres,pSal,day_MC,month_MC,year_MC,time_MC,pH,CHa,NTU,flow,unix_time,TC_cont_flg,Moxy_flg,O2satper_flg,pSal_flg,pH_flg,CHa_flg,NTU_flg
2023-09-01 00:00:02+00:00,#0007922,09/01/2023,00:01:11,10.57,3.58,-3.52,15.43,54,-0.955274,7e-006,-0.834437,9e-005,-17.56,-2.33,5730,1914,100.085,31.581,14.711,43.355,44.104,50.885,6.781,1182,680.9,393.1,15.3924,1.51092,0.075,11.0069,1,Sep,2023,00:02:50,7.2444867877981,0.85,0.72,6.66666666666667,1693526402,1,1,1,4,3,1,1
2023-09-01 00:20:02+00:00,#0007923,09/01/2023,00:21:11,10.57,3.58,-3.52,15.69,54,-0.956104,7e-006,-0.835283,0.000172,-2.82,-2.396,5730,1914,95.205,30.211,14.971,43.786,44.535,51.338,6.803,1195.7,679,384.6,15.5179,1.55052,0.078,11.2844,1,Sep,2023,00:22:49,7.23606828922806,0.79,0.48,6.62666666666667,1693527602,1,1,1,4,3,1,1
2023-09-01 00:40:02+00:00,#0007924,09/01/2023,00:41:10,10.58,3.58,-3.52,15.95,54,-0.95632,7e-006,-0.835782,7.7e-005,-7.83,-2.352,5730,1914,91.691,29.215,15.161,44.109,44.858,51.67,6.812,1203.5,677.3,378.4,15.639,1.57378,0.084,11.4334,1,Sep,2023,00:42:49,7.23394643161453,0.79,0.48,6.65333333333333,1693528802,1,1,1,4,3,1,1
2023-09-01 01:00:02+00:00,#0007925,09/01/2023,01:01:10,10.58,3.58,-3.52,15.95,54,-0.956363,7e-006,-0.835809,0.000121,-12.73,-2.398,5730,1914,94.369,30.181,15.335,43.733,44.482,51.309,6.827,1191.8,676,372.7,15.7581,1.54636,0.089,11.1838,1,Sep,2023,01:02:49,7.22488976535765,1.04,0.48,6.66666666666667,1693530002,1,1,1,4,3,1,1
2023-09-01 01:20:02+00:00,#0007926,09/01/2023,01:21:10,10.57,3.58,-3.53,15.95,54,-0.956488,9e-006,-0.835981,0.000408,-6.87,-2.392,5730,1914,81.178,26.046,15.484,45.245,45.994,52.831,6.837,1235,674.8,367.8,15.9336,1.55849,0.053,11.2295,1,Sep,2023,01:22:49,7.22424446780193,1.1,0.48,6.68,1693531202,1,1,1,4,3,1,1
2023-09-01 01:40:02+00:00,#0007927,09/01/2023,01:41:10,10.58,3.58,-3.53,16.34,54,-0.956997,9e-006,-0.836696,0.000462,-12.04,-2.412,5730,1914,92.129,29.648,15.623,43.873,44.622,51.468,6.846,1193.2,673.6,363.3,16.1894,1.57633,0.053,11.2966,1,Sep,2023,01:42:49,7.21269480275692,1.22,0.48,6.64,1693532402,1,1,1,4,3,1,1
2023-09-01 02:00:02+00:00,#0007928,09/01/2023,02:01:11,10.58,3.58,-3.53,16.46,54,-0.957089,9e-006,-0.836589,0.000162,-9.68,-2.395,5730,1914,84.492,27.288,15.792,44.715,45.464,52.321,6.857,1218.1,672.4,357.8,16.2798,1.59239,0.111,11.3959,1,Sep,2023,02:02:49,7.21287178181949,1.46,0.48,6.72,1693533602,1,1,1,4,3,1,1
2023-09-01 02:20:02+00:00,#0007929,09/01/2023,02:21:10,10.58,3.58,-3.53,16.72,54,-0.957175,9e-006,-0.836617,0.00027,-8.24,-2.473,5730,1914,106.901,34.645,15.953,42.117,42.866,49.733,6.867,1139.5,671.1,352.5,16.2552,1.6052,0.111,11.5025,1,Sep,2023,02:22:49,7.21160068506605,1.46,0.48,6.72,1693534802,1,1,1,4,3,1,1
2023-09-01 02:40:02+00:00,#0007930,09/01/2023,02:41:10,10.59,3.58,-3.53,16.21,54,-0.957035,7e-006,-0.83657,0.000168,-15.76,-2.444,5730,1914,107.538,34.924,16.051,42.01,42.759,49.632,6.873,1135.4,670.3,349.3,16.1755,1.6188,0.123,11.6315,1,Sep,2023,02:42:49,7.22466998240728,1.34,0.48,6.74666666666667,1693536002,1,1,1,4,3,1,1
2023-09-01 03:00:02+00:00,#0007931,09/01/2023,03:01:10,10.57,3.58,-3.53,16.46,54,-0.957011,7e-006,-0.836503,0.000178,-11.28,-2.433,5730,1914,86.656,28.165,16.089,44.334,45.083,51.956,6.872,1205,670,348.1,16.0779,1.63024,0.136,11.7494,1,Sep,2023,03:02:49,7.22572947266614,1.34,0.48,6.70666666666667,1693537202,1,1,1,4,3,1,1
2023-09-01 03:20:02+00:00,#0007932,09/01/2023,03:21:11,10.61,3.58,-3.53,16.72,54,-0.958603,8e-006,-0.837988,0.000181,-5.5,-2.435,5730,1914,68.257,22.174,16.067,46.737,47.486,54.356,6.87,1274.5,670.2,348.8,15.9182,1.6449,0.123,11.9117,1,Sep,2023,03:22:50,7.19993422747468,1.16,0.72,6.73333333333333,1693538402,1,1,1,4,3,1,1
2023-09-01 03:40:02+00:00,#0007933,09/01/2023,03:41:10,10.58,3.58,-3.52,16.46,54,-0.960248,5e-006,-0.839245,7.4e-005,-1.9,-2.545,5730,1914,62.732,20.346,15.99,47.556,48.305,55.167,6.863,1294.9,670.7,351.3,15.7248,1.65747,0.139,12.0691,1,Sep,2023,03:42:49,7.17952562115613,1.04,0.72,6.76,1693539602,1,1,1,4,3,1,1
2023-09-01 04:00:02+00:00,#0007934,09/01/2023,04:01:11,10.59,3.58,-3.53,16.21,54,-0.961555,7e-006,-0.840159,0.000318,-4.07,-2.353,5730,1914,59.645,19.291,15.859,48.059,48.808,55.661,6.853,1309.8,671.7,355.6,15.5315,1.67137,0.14,12.2385,1,Sep,2023,04:02:50,7.16514858761797,0.97,0.72,6.8,1693540802,1,1,1,4,3,1,1
2023-09-01 04:20:01+00:00,#0007935,09/01/2023,04:21:10,10.58,3.58,-3.53,15.95,54,-0.962416,1e-005,-0.840507,0.000298,-14.76,-2.463,5730,1914,58.359,18.808,15.693,48.31,49.059,55.904,6.845,1316.2,673.1,361,15.3119,1.68184,0.122,12.3904,1,Sep,2023,04:22:49,7.15803746865104,0.91,0.72,6.77333333333333,1693542001,1,1,1,4,3,1,1
2023-09-01 04:40:02+00:00,#0007936,09/01/2023,04:41:10,10.59,3.58,-3.53,15.95,54,-0.96186,8e-006,-0.839636,0.000233,-4.72,-2.395,5730,1914,43.291,13.891,15.489,50.805,51.554,58.394,6.84,1382.5,674.6,367.7,15.0927,1.69103,0.065,12.5334,1,Sep,2023,04:42:49,7.17207917716542,0.97,0.72,6.77333333333333,1693543202,1,1,1,4,3,1,1
2023-09-01 05:00:02+00:00,#0007937,09/01/2023,05:01:10,10.6,3.58,-3.53,15.95,54,-0.961412,5e-006,-0.83873,0.000158,-3.32,-2.392,5730,1914,40.714,13.012,15.301,51.308,52.057,58.891,6.834,1398.7,676.1,373.8,14.9,1.699,0.133,12.6595,1,Sep,2023,05:02:49,7.18368634099776,0.91,0.72,6.77333333333333,1693544402,1,1,1,4,3,1,1
2023-09-01 05:20:02+00:00,#0007938,09/01/2023,05:21:10,10.6,3.58,-3.53,15.69,54,-0.961283,7e-006,-0.837946,0.000158,-13.8,-2.386,5730,1914,48.781,15.526,15.11,50.004,50.753,57.577,6.824,1365.9,677.7,380.1,14.6488,1.71196,0.137,12.8465,1,Sep,2023,05:22:49,7.19474914288497,0.91,0.72,6.76,1693545602,1,1,1,4,3,1,1
2023-09-01 05:40:02+00:00,#0007939,09/01/2023,05:41:10,10.58,3.58,-3.52,15.43,54,-0.961418,9e-006,-0.837576,8e-005,-5.42,-2.297,5730,1914,67.728,21.461,14.905,47.235,47.984,54.796,6.812,1289.1,679.3,386.8,14.2588,1.72312,0.134,13.0677,1,Sep,2023,05:42:49,7.20213911534176,0.79,0.72,6.76,1693546802,1,1,1,4,3,1,1
2023-09-01 06:00:02+00:00,#0007940,09/01/2023,06:01:10,10.58,3.58,-3.52,15.18,54,-0.961669,6e-006,-0.837298,6.4e-005,-7.45,-2.3,5730,1914,73.012,22.986,14.606,46.631,47.38,54.188,6.807,1275.9,681.7,396.5,13.9182,1.7507,0.136,13.4127,1,Sep,2023,06:02:49,7.21082436319162,0.55,0.48,6.81333333333333,1693548002,1,1,1,4,3,1,1
2023-09-01 06:20:02+00:00,#0007941,09/01/2023,06:21:10,10.55,3.58,-3.52,14.79,54,-0.961986,8e-006,-0.837109,7.6e-005,-11.98,-2.257,5730,1914,75.69,23.652,14.264,46.411,47.16,53.963,6.803,1271.2,684.4,407.6,13.6025,1.75721,0.137,13.5777,1,Sep,2023,06:22:49,7.2148414061176,0.37,0.72,6.8,1693549202,1,1,1,4,3,1,1
2023-09-01 06:40:02+00:00,#0007942,09/01/2023,06:41:10,10.58,3.58,-3.52,14.4,54,-0.962471,7e-006,-0.837086,4.3e-005,-7.13,-2.224,5730,1914,82.389,25.561,13.937,45.698,46.447,53.245,6.798,1253,687.2,418.2,13.3948,1.76415,0.13,13.7099,1,Sep,2023,06:42:50,7.21494445228393,0.37,0.48,6.78666666666667,1693550402,1,1,1,4,3,1,1
2023-09-01 07:00:02+00:00,#0007943,09/01/2023,07:01:10,10.58,3.58,-3.52,14.14,54,-0.963117,1.1e-005,-0.837166,5.4e-005,-15.87,-2.273,5730,1914,94.155,29.034,13.662,44.437,45.186,51.974,6.789,1217.8,689.3,427.2,13.2206,1.76432,0.127,13.774,1,Sep,2023,07:02:49,7.20865880685783,0.24,0.48,6.74666666666667,1693551602,1,1,1,4,3,1,1
2023-09-01 07:20:02+00:00,#0007944,09/01/2023,07:21:10,10.56,3.58,-3.52,14.14,54,-0.963673,9e-006,-0.837388,5.6e-005,-10.32,-2.194,5730,1914,86.24,26.476,13.463,45.424,46.173,52.951,6.778,1247,690.9,433.6,13.0931,1.76723,0.122,13.8448,1,Sep,2023,07:22:50,7.20087481974932,0.3,0.48,6.74666666666667,1693552802,1,1,1,4,3,1,1
2023-09-01 07:40:02+00:00,#0007945,09/01/2023,07:41:10,10.56,3.58,-3.52,13.76,54,-0.964345,9e-006,-0.837603,3.8e-005,-1.01,-2.227,5730,1914,77.983,23.849,13.29,46.493,47.242,54.001,6.759,1277,692.4,439.2,13.0195,1.76746,0.062,13.8735,1,Sep,2023,07:42:49,7.1946046767424,0.24,0.48,6.70666666666667,1693554002,1,1,1,4,3,1,1
2023-09-01 08:00:02+00:00,#0007946,09/01/2023,08:01:10,10.55,3.58,-3.52,13.37,55,-0.96506,1.1e-005,-0.837902,5.7e-005,-3.71,-2.154,5730,1914,72.253,22.024,13.142,47.279,48.028,54.773,6.745,1298.2,693.6,444,12.8382,1.76705,0.131,13.9363,1,Sep,2023,08:02:49,7.18861874583512,0.24,0.48,6.72,1693555202,1,1,1,4,3,1,1
2023-09-01 08:20:02+00:00,#0007947,09/01/2023,08:21:11,10.54,3.58,-3.52,13.5,55,-0.965799,7e-006,-0.838224,4.7e-005,-8.69,-2.173,5730,1914,62.86,19.101,13.001,48.594,49.343,56.076,6.733,1333.7,694.8,448.5,12.8072,1.76646,0.124,13.9426,1,Sep,2023,08:22:50,7.17418757916335,0.24,0.48,6.74666666666667,1693556402,1,1,1,4,3,1,1
2023-09-01 08:40:02+00:00,#0007948,09/01/2023,08:41:10,10.55,3.58,-3.52,13.37,55,-0.966569,7e-006,-0.838645,3.4e-005,-8.97,-2.142,5730,1914,56.797,17.211,12.879,49.501,50.25,56.965,6.715,1358.5,695.7,452.5,12.807,1.76832,0.122,13.9587,1,Sep,2023,08:42:49,7.1626946302562,0.18,0.48,6.69333333333333,1693557602,1,1,1,4,3,1,1
2023-09-01 09:00:02+00:00,#0007949,09/01/2023,09:01:10,10.55,3.58,-3.52,13.37,55,-0.967321,7e-006,-0.839143,5.6e-005,-13.26,-2.111,5730,1914,52.469,15.871,12.797,50.17,50.919,57.626,6.708,1377,696.3,455.1,12.8281,1.76942,0.029,13.9603,1,Sep,2023,09:02:49,7.14951125695492,0.18,0.48,6.74666666666667,1693558802,1,1,1,4,3,1,1
2023-09-01 09:20:02+00:00,#0007950,09/01/2023,09:21:10,10.55,3.58,-3.52,13.37,55,-0.968097,8e-006,-0.839596,2.1e-005,-13.25,-2.208,5730,1914,41.795,12.634,12.769,51.859,52.608,59.3,6.692,1422.9,696.5,456,12.9619,1.7738,0.13,13.9487,1,Sep,2023,09:22:49,7.13554118112633,0.3,0.48,6.70666666666667,1693560002,1,1,1,4,3,1,1
2023-09-01 09:40:02+00:00,#0007951,09/01/2023,09:41:10,10.54,3.58,-3.52,13.37,55,-0.969011,8e-006,-0.840316,1.9e-005,-9.23,-2.219,5730,1914,31.544,9.541,12.797,53.614,54.363,61.044,6.681,1468,696.3,455.1,12.9902,1.77656,0.113,13.962,1,Sep,2023,09:42:49,7.11983138396432,0.24,0.48,6.69333333333333,1693561202,1,1,3,4,3,1,1
2023-09-01 10:00:01+00:00,#0007952,09/01/2023,10:01:10,10.55,3.58,-3.52,13.89,55,-0.969756,6e-006,-0.84081,2.7e-005,-9.64,-2.153,5730,1914,21.538,6.519,12.83,55.488,56.237,62.909,6.671,1516.4,696.1,454,12.9644,1.77784,0.076,13.9825,1,Sep,2023,10:02:49,7.10099371068889,,,6.68,1693562401,1,1,3,4,3,9,9
2023-09-01 10:20:02+00:00,#0007953,09/01/2023,10:21:10,10.54,3.58,-3.52,14.02,55,-0.970412,1.2e-005,-0.841167,7.1e-005,-8.33,-2.202,5730,1914,14.919,4.518,12.855,56.828,57.577,64.245,6.668,1552.3,695.9,453.2,13.0555,1.78134,0.121,13.9789,1,Sep,2023,10:22:49,7.08780810269057,0.24,0.72,6.66666666666667,1693563602,1,1,3,4,3,1,1
2023-09-01 10:40:02+00:00,#0007954,09/01/2023,10:41:10,10.55,3.58,-3.52,13.37,55,-0.971035,1e-005,-0.841516,4.3e-005,-12.63,-2.174,5730,1914,10.176,3.084,12.887,57.841,58.59,65.254,6.665,1581.2,695.6,452.2,13.1129,1.78523,0.059,13.9911,1,Sep,2023,10:42:49,7.08503212366281,0.3,0.72,6.65333333333333,1693564802,1,1,3,4,3,1,1
2023-09-01 11:00:01+00:00,#0007955,09/01/2023,11:01:10,10.55,3.58,-3.52,13.5,55,-0.97162,1.1e-005,-0.841771,5.2e-005,-11.49,-2.266,5730,1914,9.903,3.004,12.924,57.896,58.645,65.305,6.66,1582.5,695.2,451,13.5782,1.78985,0.097,13.8611,1,Sep,2023,11:02:49,7.06958585559661,,,6.61333333333333,1693566001,1,1,3,4,3,9,9
2023-09-01 11:20:02+00:00,#0007956,09/01/2023,11:21:10,10.53,3.58,-3.52,13.89,55,-0.972515,1e-005,-0.842356,5.9e-005,-10.42,-2.256,5730,1914,46.663,14.216,13.116,50.968,51.717,58.369,6.652,1398.5,694.1,444.8,14.634,1.80638,0.134,13.6244,1,Sep,2023,11:22:49,7.04257716181129,1.1,0.72,6.62666666666667,1693567202,1,1,1,4,3,1,1
2023-09-01 11:40:02+00:00,#0007957,09/01/2023,11:41:10,10.55,3.58,-3.52,14.66,55,-0.973553,6e-006,-0.843638,2.6e-005,-15.53,-2.252,5730,1914,73.49,22.679,13.697,46.91,47.659,54.324,6.665,1285,691.1,426,15.2055,1.82348,0.139,13.5659,1,Sep,2023,11:42:49,7.01358763189063,1.34,0.72,6.62666666666667,1693568402,1,1,1,4,3,1,1
2023-09-01 12:00:02+00:00,#0007958,09/01/2023,12:01:10,10.57,3.58,-3.52,15.3,55,-0.973154,8e-006,-0.844161,8.8e-005,-9.57,-2.393,5730,1914,101.595,31.788,14.324,43.353,44.102,50.814,6.712,1182.9,686.1,405.7,15.4462,1.82447,0.124,13.4916,1,Sep,2023,12:02:49,7.010895006885,1.28,0.72,6.61333333333333,1693569602,1,1,1,4,3,1,1
2023-09-01 12:20:02+00:00,#0007959,09/01/2023,12:21:10,10.55,3.58,-3.52,15.18,54,-0.971371,1e-005,-0.843506,0.000241,-10.17,-2.366,5730,1914,95.634,30.175,14.709,43.845,44.594,51.361,6.767,1198.2,681.8,393.1,15.7532,1.82682,0.049,13.4065,1,Sep,2023,12:22:50,7.04106253106597,1.22,0.72,6.61333333333333,1693570802,1,1,1,4,3,1,1
2023-09-01 12:40:02+00:00,#0007960,09/01/2023,12:41:10,10.58,3.58,-3.52,16.08,54,-0.970152,5e-006,-0.842976,0.00026,-10.01,-2.455,5730,1914,111.132,35.332,15.059,42.058,42.807,49.613,6.806,1142.3,678.6,381.7,16.2293,1.83124,0.132,13.2825,1,Sep,2023,12:42:50,7.04802979637979,1.46,0.72,6.64,1693572002,1,1,1,4,3,3,1
2023-09-01 13:00:02+00:00,#0007961,09/01/2023,13:01:10,10.56,3.58,-3.52,16.08,54,-0.96877,1.1e-005,-0.84215,0.000138,2.26,-2.415,5730,1914,113.581,36.389,15.416,41.664,42.413,49.253,6.84,1129.3,675.6,370.1,16.4047,1.83435,0.125,13.2491,1,Sep,2023,13:02:50,7.07115249902144,1.58,0.72,6.62666666666667,1693573202,1,1,1,4,3,1,1
2023-09-01 13:20:02+00:00,#0007962,09/01/2023,13:21:10,10.58,3.58,-3.52,16.46,54,-0.967544,1.3e-005,-0.841705,6.4e-005,-7.42,-2.494,5730,1914,128.208,41.391,15.773,40.132,40.881,47.751,6.87,1080.6,672.8,358.4,16.8819,1.84204,0.142,13.1531,1,Sep,2023,13:22:49,7.08514060672719,1.64,0.72,6.66666666666667,1693574402,1,1,1,4,3,1,1
2023-09-01 13:40:02+00:00,#0007963,09/01/2023,13:41:10,10.58,3.58,-3.53,16.85,54,-0.966256,1.1e-005,-0.840964,5.5e-005,-10.27,-2.533,5730,1914,130.113,42.306,16.108,39.819,40.568,47.46,6.893,1070.9,670.3,347.4,17.2592,1.84543,0.131,13.0576,1,Sep,2023,13:42:49,7.10003320876129,1.64,0.48,6.66666666666667,1693575602,1,1,1,4,3,1,1
2023-09-01 14:00:02+00:00,#0007964,09/01/2023,14:01:10,10.6,3.58,-3.53,17.5,54,-0.964796,7e-006,-0.840138,8.4e-005,-14.73,-2.511,5730,1914,116.097,38.033,16.462,40.977,41.726,48.647,6.921,1106.7,667.6,335.8,17.5289,1.84416,0.058,12.962,1,Sep,2023,14:02:49,7.11465309395638,1.46,0.48,6.65333333333333,1693576802,1,1,1,4,3,1,1
2023-09-01 14:20:02+00:00,#0007965,09/01/2023,14:21:10,10.6,3.58,-3.53,17.62,54,-0.963285,8e-006,-0.839287,4.7e-005,-7.91,-2.625,5730,1914,115.79,38.171,16.76,40.882,41.631,48.574,6.944,1102.1,665.1,326.1,17.6354,1.84669,0.163,12.9476,1,Sep,2023,14:22:49,7.13895259835099,1.64,0.48,6.69333333333333,1693578002,1,1,1,4,3,1,1
2023-09-01 14:40:02+00:00,#0007966,09/01/2023,14:41:10,10.59,3.58,-3.53,17.62,54,-0.961723,1e-005,-0.83815,6.7e-005,-11.18,-2.663,5730,1914,133.921,44.383,17.014,39.098,39.847,46.805,6.958,1047.2,663.1,317.7,17.5719,1.85066,0.149,12.9981,1,Sep,2023,14:42:49,7.16749943811442,1.46,0.48,6.66666666666667,1693579202,1,1,1,4,3,1,1
2023-09-01 15:00:02+00:00,#0007967,09/01/2023,15:01:10,10.62,3.58,-3.53,18.01,54,-0.961356,1.4e-005,-0.837709,6.4e-005,-17.74,-2.617,5730,1914,133.46,44.38,17.175,39.07,39.819,46.781,6.962,1046.8,661.6,312.4,17.3871,1.85479,0.133,13.0886,1,Sep,2023,15:02:49,7.1716289367367,1.34,0.48,6.68,1693580402,1,1,1,4,3,1,1
2023-09-01 15:20:02+00:00,#0007968,09/01/2023,15:21:10,10.6,3.58,-3.53,17.75,54,-0.961508,9e-006,-0.836979,1.8e-005,-13.25,-2.599,5730,1914,114.409,38.091,17.234,40.821,41.57,48.53,6.96,1100.8,661.2,310.5,17.3038,1.86271,0.085,13.1764,1,Sep,2023,15:22:50,7.17476565825524,1.28,0.72,6.69333333333333,1693581602,1,1,1,4,3,1,1
2023-09-01 15:40:02+00:00,#0007969,09/01/2023,15:41:10,10.6,3.58,-3.53,17.75,54,-0.961526,1e-005,-0.836494,7.8e-005,-7.11,-2.602,5730,1914,118.766,39.537,17.228,40.396,41.145,48.098,6.952,1086.8,661.2,310.7,17.2664,1.87215,0.171,13.2612,1,Sep,2023,15:42:49,7.17688412353073,1.16,0.72,6.70666666666667,1693582802,1,1,1,4,3,1,1
2023-09-01 16:00:02+00:00,#0007970,09/01/2023,16:01:10,10.59,3.58,-3.53,17.75,54,-0.961346,9e-006,-0.836065,3.1e-005,-1.76,-2.571,5730,1914,117.637,39.15,17.214,40.512,41.261,48.207,6.946,1089.4,661.2,311.2,17.1218,1.87248,0.128,13.311,1,Sep,2023,16:02:49,7.18142319543062,1.04,0.72,6.70666666666667,1693584002,1,1,1,4,3,1,1
2023-09-01 16:20:02+00:00,#0007971,09/01/2023,16:21:10,10.59,3.58,-3.53,17.24,54,-0.961463,9e-006,-0.83585,3.5e-005,-2.18,-2.695,5730,1914,99.796,33.176,17.161,42.384,43.133,50.071,6.938,1146.7,661.7,312.9,16.8685,1.87649,0.176,13.4256,1,Sep,2023,16:22:50,7.18901435111917,0.85,0.72,6.69333333333333,1693585202,1,1,1,4,3,1,1
2023-09-01 16:40:02+00:00,#0007972,09/01/2023,16:41:10,10.61,3.58,-3.53,17.24,54,-0.961082,5e-006,-0.835094,0.000123,-2.7,-2.541,5730,1914,86.316,28.607,17.014,44.011,44.76,51.689,6.928,1192.9,662.7,317.7,16.1651,1.87714,0.047,13.6673,1,Sep,2023,16:42:49,7.20240979826967,0.73,0.96,6.69333333333333,1693586402,1,1,1,4,3,1,1
2023-09-01 17:00:02+00:00,#0007973,09/01/2023,17:01:10,10.63,3.58,-3.53,16.98,54,-0.96061,8e-006,-0.834161,0.000203,-13.07,-2.596,5730,1914,73.358,24.092,16.58,45.845,46.594,53.505,6.91,1242.8,665.9,332,14.8527,1.87338,0.165,14.0965,1,Sep,2023,17:02:49,7.22565618503662,0.55,0.72,6.70666666666667,1693587602,1,1,1,4,3,1,1
2023-09-01 17:20:02+00:00,#0007974,09/01/2023,17:21:10,10.59,3.58,-3.53,15.69,54,-0.960347,1e-005,-0.833121,0.00023,-11.87,-2.491,5730,1914,94.556,30.55,15.81,43.519,44.268,51.163,6.894,1180.4,671.6,357.2,14.2496,1.87014,0.196,14.289,1,Sep,2023,17:22:50,7.25172091905434,0.43,0.48,6.69333333333333,1693588802,1,1,1,4,3,1,1
2023-09-01 17:40:02+00:00,#0007975,09/01/2023,17:41:09,10.56,3.58,-3.53,15.18,55,-0.960376,8e-006,-0.832464,4.8e-005,-11.13,-2.341,5730,1914,94.633,30.109,15.094,43.801,44.55,51.426,6.876,1193.6,677.4,380.6,13.883,1.86569,0.155,14.3875,1,Sep,2023,17:42:49,7.26031532163683,0.37,0.48,6.74666666666667,1693590002,1,1,1,4,3,1,1
2023-09-01 18:00:02+00:00,#0007976,09/01/2023,18:01:10,10.59,3.58,-3.52,14.79,54,-0.96055,1.1e-005,-0.83201,6.9e-005,-1.61,-2.332,5730,1914,102.861,32.323,14.521,43.136,43.885,50.736,6.85,1176.3,682,399.3,13.5931,1.86394,0.077,14.4813,1,Sep,2023,18:02:49,7.26471921115971,0.3,0.48,6.72,1693591202,1,1,1,4,3,1,1
2023-09-01 18:20:02+00:00,#0007977,09/01/2023,18:21:10,10.57,3.58,-3.52,14.53,55,-0.96096,9e-006,-0.831865,4.2e-005,-11,-2.307,5730,1914,93.885,29.224,14.088,44.293,45.042,51.871,6.829,1212.4,685.6,413.3,13.4205,1.86204,0.207,14.5304,1,Sep,2023,18:22:50,7.26214076575811,0.3,0.48,6.69333333333333,1693592402,1,1,1,4,3,1,1
2023-09-01 18:40:02+00:00,#0007978,09/01/2023,18:41:10,10.56,3.58,-3.52,14.14,55,-0.961517,8e-006,-0.832001,3.4e-005,-0.34,-2.235,5730,1914,92.815,28.69,13.771,44.542,45.291,52.095,6.804,1219.9,688.2,423.6,13.3379,1.85975,0.194,14.5422,1,Sep,2023,18:42:49,7.25762664190498,0.43,0.48,6.70666666666667,1693593602,1,1,1,4,3,1,1
2023-09-01 19:00:02+00:00,#0007979,09/01/2023,19:01:10,10.57,3.58,-3.52,14.14,55,-0.962075,1.3e-005,-0.832145,5.1e-005,-4.44,-2.213,5730,1914,86.856,26.709,13.537,45.322,46.071,52.856,6.785,1243.1,690.1,431.2,13.214,1.86022,0.201,14.5934,1,Sep,2023,19:02:49,7.24919505789008,0.3,0.48,6.73333333333333,1693594802,1,1,1,4,3,1,1
2023-09-01 19:20:01+00:00,#0007980,09/01/2023,19:21:09,10.56,3.58,-3.52,14.02,55,-0.962733,8e-006,-0.832525,6e-005,-13.72,-2.225,5730,1914,72.541,22.234,13.389,47.149,47.898,54.665,6.767,1293.6,691.3,436,13.3625,1.86499,0.07,14.5775,1,Sep,2023,19:22:49,7.23874031144039,0.3,0.48,6.69333333333333,1693596001,1,1,1,4,3,1,1
2023-09-01 19:40:02+00:00,#0007981,09/01/2023,19:41:10,10.58,3.58,-3.52,14.14,55,-0.963582,8e-006,-0.833043,2.4e-005,-8.11,-2.203,5730,1914,60.766,18.599,13.327,48.775,49.524,56.269,6.745,1339.4,691.8,438,13.3497,1.86908,0.22,14.6172,1,Sep,2023,19:42:49,7.22338768043352,0.3,0.48,6.68,1693597202,1,1,1,4,3,1,1
2023-09-01 20:00:01+00:00,#0007982,09/01/2023,20:01:09,10.56,3.58,-3.52,13.89,55,-0.964432,9e-006,-0.833577,6e-005,-10.97,-2.213,5730,1914,45.356,13.876,13.306,51.119,51.868,58.605,6.737,1401.6,692.1,438.7,13.1728,1.86886,0.216,14.6831,1,Sep,2023,20:02:49,7.21333546014799,0.3,0.48,6.69333333333333,1693598401,1,1,1,4,3,1,1
2023-09-01 20:20:02+00:00,#0007983,09/01/2023,20:21:10,10.56,3.58,-3.52,14.14,55,-0.965169,1.9e-005,-0.834004,1.8e-005,1.55,-2.142,5730,1914,26.576,8.125,13.276,54.419,55.168,61.891,6.724,1486.8,692.3,439.6,13.281,1.86733,0.205,14.6285,1,Sep,2023,20:22:49,7.19584597662584,0.3,0.48,6.68,1693599602,1,1,3,4,3,1,1
2023-09-01 20:40:02+00:00,#0007984,09/01/2023,20:41:10,10.56,3.58,-3.52,14.02,55,-0.965893,1.1e-005,-0.834384,7.9e-005,-5.09,-2.21,5730,1914,23.19,7.084,13.237,55.081,55.83,62.548,6.718,1504.2,692.6,440.9,13.2818,1.86827,0.227,14.6362,1,Sep,2023,20:42:50,7.18483512374314,0.3,0.48,6.66666666666667,1693600802,1,1,3,4,3,1,1
2023-09-01 21:00:02+00:00,#0007985,09/01/2023,21:01:10,10.59,3.58,-3.52,14.14,55,-0.966626,7e-006,-0.834863,4.8e-005,-6.71,-2.208,5730,1914,35.766,10.923,13.226,52.754,53.503,60.203,6.7,1444.6,692.7,441.2,13.3449,1.8715,0.222,14.6397,1,Sep,2023,21:02:50,7.17058197468037,0.3,0.48,6.68,1693602002,1,1,1,4,3,1,1
2023-09-01 21:20:02+00:00,#0007986,09/01/2023,21:21:10,10.55,3.58,-3.52,14.27,55,-0.967466,1.4e-005,-0.835424,6.7e-005,-5.39,-2.171,5730,1914,42.783,13.068,13.235,51.56,52.309,58.999,6.69,1413.8,692.7,440.9,13.3877,1.87562,0.213,14.6583,1,Sep,2023,21:22:49,7.154738712478,0.3,0.48,6.69333333333333,1693603202,1,1,1,4,3,1,1
2023-09-01 21:40:02+00:00,#0007987,09/01/2023,21:41:10,10.55,3.58,-3.52,13.89,55,-0.968226,9e-006,-0.835936,6.3e-005,-10.48,-2.171,5730,1914,36.837,11.258,13.259,52.559,53.308,59.986,6.678,1439.4,692.5,440.2,13.3951,1.87871,0.212,14.6818,1,Sep,2023,21:42:49,7.14668631941601,0.3,0.48,6.65333333333333,1693604402,1,1,1,4,3,1,1
2023-09-01 22:00:02+00:00,#0007988,09/01/2023,22:01:10,10.54,3.58,-3.52,13.89,55,-0.969231,7e-006,-0.836677,4.7e-005,-4.57,-2.165,5730,1914,28.508,8.717,13.285,54.052,54.801,61.481,6.68,1477.5,692.3,439.4,13.5237,1.90527,0.229,14.8583,1,Sep,2023,22:02:49,7.13366510504812,0.3,0.48,6.68,1693605602,1,1,3,4,3,1,1
2023-09-01 22:20:02+00:00,#0007989,09/01/2023,22:21:10,10.56,3.58,-3.52,14.27,55,-0.970116,8e-006,-0.837248,2.8e-005,-4.74,-2.2,5730,1914,24.589,7.524,13.315,54.791,55.54,62.218,6.678,1496.4,692.1,438.4,13.6333,1.90552,0.079,14.8181,1,Sep,2023,22:22:49,7.11246201410496,0.37,0.48,6.65333333333333,1693606802,1,1,3,4,3,1,1
2023-09-01 22:40:02+00:00,#0007990,09/01/2023,22:41:10,10.54,3.58,-3.52,14.66,55,-0.970977,8e-006,-0.837774,4.3e-005,-5.7,-2.22,5730,1914,28.836,8.838,13.388,53.966,54.715,61.388,6.673,1474.8,691.4,436,15.4929,1.92506,0.282,14.2869,1,Sep,2023,22:42:50,7.07857687956281,1.28,0.48,6.68,1693608002,1,1,3,4,3,1,1
2023-09-01 23:00:02+00:00,#0007991,09/01/2023,23:01:10,10.54,3.58,-3.52,15.18,55,-0.972162,5e-006,-0.839227,9.8e-005,-8.41,-2.277,5730,1914,50.9,15.796,13.951,50.037,50.786,57.47,6.684,1366.1,688.6,417.8,16.5161,1.97111,0.277,14.289,1,Sep,2023,23:02:49,7.05166235431217,1.46,0.48,6.66666666666667,1693609202,1,1,1,4,3,1,1
2023-09-01 23:20:02+00:00,#0007992,09/01/2023,23:21:09,10.55,3.58,-3.52,15.95,55,-0.971272,9e-006,-0.839991,0.000284,-13.85,-2.431,5730,1914,82.155,26.033,14.906,45.349,46.098,52.852,6.754,1237.5,682.1,386.7,16.8917,1.97155,0.247,14.1603,1,Sep,2023,23:22:49,7.05450831948146,1.64,0.48,6.66666666666667,1693610402,1,1,1,4,3,3,1
2023-09-01 23:40:02+00:00,#0007993,09/01/2023,23:41:09,10.55,3.58,-3.52,16.46,55,-0.968872,7e-006,-0.839034,0.000223,0.57,-2.584,5730,1914,127.174,40.973,15.677,40.266,41.015,47.858,6.843,1085.4,675.1,361.5,16.9542,1.96467,0.244,14.0846,1,Sep,2023,23:42:49,7.08811273469332,1.64,0.72,6.64,1693611602,1,1,1,4,3,3,1
2023-09-02 00:00:02+00:00,#0007994,09/02/2023,00:01:10,10.56,3.58,-3.52,15.95,55,-0.966902,1e-005,-0.837581,0.000114,-9.11,-2.504,5730,1914,109.302,35.557,16.132,41.795,42.544,49.437,6.893,1132.2,670.5,346.7,17.0403,1.95907,0.19,14.0111,2,Sep,2023,00:02:50,7.12663411510279,1.77,0.48,6.64,1693612802,1,1,1,4,3,3,1